This is the latest recevied weather packets stored in our database for station/object K1RFS. If no packets are shown the sender has not sent any weather packets the latest 10 day(s).
| Time | Temp. | Humidity | Pressure | Rain* | Wind** | Luminosity | Snow |
|---|---|---|---|---|---|---|---|
| 1778165675 | 13.33° C | 32% | 1003.9 hPa | 0 mm | - | 41 W/m² | - |
| 1778165373 | 12.78° C | 33% | 1004 hPa | 0 mm | - | 36 W/m² | - |
| 1778165070 | 12.78° C | 34% | 1003.9 hPa | 0 mm | - | 33 W/m² | - |
| 1778164767 | 12.78° C | 34% | 1004 hPa | 0 mm | - | 43 W/m² | - |
| 1778164464 | 12.78° C | 34% | 1004.1 hPa | 0 mm | - | 51 W/m² | - |
| 1778164161 | 12.78° C | 35% | 1004 hPa | 0 mm | - | 75 W/m² | - |
| 1778163857 | 12.22° C | 34% | 1004 hPa | 0 mm | - | 76 W/m² | - |
| 1778163554 | 12.78° C | 34% | 1004 hPa | 0 mm | - | 73 W/m² | - |
| 1778163250 | 12.22° C | 33% | 1004 hPa | 0 mm | - | 78 W/m² | - |
| 1778162946 | 12.22° C | 34% | 1004 hPa | 0 mm | - | 76 W/m² | - |
| 1778162643 | 12.22° C | 33% | 1004.1 hPa | 0 mm | - | 62 W/m² | - |
| 1778162341 | 12.22° C | 33% | 1004 hPa | 0 mm | - | 59 W/m² | - |
| 1778162037 | 12.22° C | 34% | 1004 hPa | 0 mm | - | 49 W/m² | - |
| 1778161735 | 12.22° C | 33% | 1004.1 hPa | 0 mm | - | 42 W/m² | - |
| 1778161431 | 11.67° C | 33% | 1003.9 hPa | 0 mm | - | 28 W/m² | - |
| 1778161127 | 11.67° C | 33% | 1004 hPa | 0 mm | - | 25 W/m² | - |
| 1778160823 | 11.67° C | 33% | 1004 hPa | 0 mm | - | 27 W/m² | - |
| 1778160522 | 11.67° C | 33% | 1003.8 hPa | 0 mm | - | 28 W/m² | - |
| 1778160217 | 11.67° C | 33% | 1003.9 hPa | 0 mm | - | 23 W/m² | - |
| 1778159915 | 11.11° C | 33% | 1003.8 hPa | 0 mm | - | 22 W/m² | - |
| 1778159611 | 11.11° C | 33% | 1003.8 hPa | 0 mm | - | 21 W/m² | - |
| 1778159308 | 11.11° C | 34% | 1003.7 hPa | 0 mm | - | 21 W/m² | - |
| 1778159005 | 10.56° C | 35% | 1003.7 hPa | 0 mm | - | 18 W/m² | - |
| 1778158704 | 10.56° C | 35% | 1003.9 hPa | 0 mm | - | 13 W/m² | - |
| 1778158401 | 10.56° C | 34% | 1003.8 hPa | 0 mm | - | 10 W/m² | - |
* Rain latest hour (hover to see other rain measurements)
** Current wind speed in m/s (hover to see current wind gust speed)